timestamp,surface_pressure_avg,surface_temp_avg,battery_voltage,lat,long
2023-01-06 00:09:01+00:00,327.048,3.28,12.65,47.84626,-54.09684
2023-01-06 00:19:00+00:00,326.038,3.3,12.65,47.84626,-54.09684
2023-01-06 00:29:00+00:00,322.038,3.2,12.65,47.84626,-54.09684
2023-01-06 00:39:00+00:00,316.4896,3.3,12.65,47.84626,-54.09684
2023-01-06 00:49:00+00:00,311.5314,3.4,12.65,47.84626,-54.09684
2023-01-06 00:59:00+00:00,314.4314,3.4,12.65,47.84626,-54.09684
2023-01-06 01:09:00+00:00,311.5779,3.4,12.65,47.84626,-54.09684
2023-01-06 01:19:01+00:00,302.4313,3.4,12.65,47.84626,-54.09684
2023-01-06 01:29:01+00:00,296.7663,3.4,12.65,47.84626,-54.09684
2023-01-06 01:39:01+00:00,295.7047,3.4,12.65,47.84626,-54.09684
2023-01-06 01:49:01+00:00,291.4597,3.4,12.65,47.84626,-54.09684
2023-01-06 01:59:01+00:00,283.178,3.46,12.65,47.84626,-54.09684
2023-01-06 02:09:01+00:00,281.3564,3.47,12.65,47.84626,-54.09684
2023-01-06 02:19:00+00:00,274.0247,3.39,12.57,47.84626,-54.09684
2023-01-06 02:29:00+00:00,257.0264,3.1,12.57,47.84626,-54.09684
2023-01-06 02:39:00+00:00,248.2347,2.98,12.57,47.84626,-54.09684
2023-01-06 02:49:00+00:00,247.7448,2.99,12.57,47.84626,-54.09684
2023-01-06 02:59:00+00:00,239.7947,3.08,12.57,47.84626,-54.09684
2023-01-06 03:09:00+00:00,226.9881,2.9,12.57,47.84626,-54.09684
2023-01-06 03:19:00+00:00,226.3398,2.84,12.65,47.84626,-54.09684
2023-01-06 03:29:00+00:00,228.5981,3.02,12.65,47.84626,-54.09684
2023-01-06 03:39:00+00:00,222.6798,3.21,12.65,47.84626,-54.09684
2023-01-06 03:49:00+00:00,218.8964,3.24,12.65,47.84626,-54.09684
2023-01-06 03:59:00+00:00,223.7264,3.3,12.65,47.84626,-54.09684
2023-01-06 04:09:00+00:00,223.8948,3.31,12.65,47.84626,-54.09684
2023-01-06 04:19:00+00:00,219.8047,3.3,12.65,47.84626,-54.09684
2023-01-06 04:29:00+00:00,214.9581,3.3,12.65,47.84626,-54.09684
2023-01-06 04:39:00+00:00,212.8548,3.32,12.65,47.84626,-54.09684
2023-01-06 04:49:00+00:00,212.0364,3.38,12.65,47.84626,-54.09684
2023-01-06 04:59:00+00:00,211.6465,3.4,12.65,47.84626,-54.09684
2023-01-06 05:09:00+00:00,210.7448,3.36,12.65,47.84626,-54.09684
2023-01-06 05:19:00+00:00,215.8014,3.2,12.57,47.84626,-54.09684
2023-01-06 05:29:00+00:00,218.8248,3.26,12.57,47.84626,-54.09684
2023-01-06 05:39:00+00:00,219.6681,3.3,12.57,47.84626,-54.09684
2023-01-06 05:49:00+00:00,220.8165,3.2,12.57,47.84626,-54.09684
2023-01-06 05:59:00+00:00,222.7164,3.1,12.57,47.84626,-54.09684
2023-01-06 06:09:00+00:00,226.2081,3.1,12.57,47.84626,-54.09684
2023-01-06 06:19:00+00:00,231.2414,3.2,12.57,47.84626,-54.09684
2023-01-06 06:29:00+00:00,238.3597,3.29,12.57,47.84626,-54.09684
2023-01-06 06:39:00+00:00,247.8481,3.3,12.57,47.84626,-54.09684
2023-01-06 06:49:00+00:00,253.7314,3.29,12.57,47.84626,-54.09684
2023-01-06 06:59:00+00:00,253.7164,3.37,12.57,47.84626,-54.09684
2023-01-06 07:09:00+00:00,257.9181,3.4,12.57,47.84626,-54.09684
2023-01-06 07:19:00+00:00,259.0464,3.5,12.57,47.84626,-54.09684
2023-01-06 07:29:00+00:00,263.0314,3.5,12.57,47.84626,-54.09684
2023-01-06 07:39:00+00:00,261.6031,3.5,12.57,47.84626,-54.09684
2023-01-06 07:49:00+00:00,265.2831,3.5,12.57,47.84626,-54.09684
2023-01-06 07:59:00+00:00,270.7281,3.5,12.57,47.84626,-54.09684
2023-01-06 08:09:00+00:00,281.2964,3.46,12.57,47.84626,-54.09684
2023-01-06 08:19:00+00:00,285.1214,3.5,12.57,47.84626,-54.09684
2023-01-06 08:29:00+00:00,291.0314,3.6,12.57,47.84626,-54.09684
2023-01-06 08:39:00+00:00,295.6097,3.6,12.57,47.84626,-54.09684
2023-01-06 08:49:00+00:00,296.2497,3.58,12.57,47.84626,-54.09684
2023-01-06 08:59:00+00:00,293.7097,3.6,12.57,47.84626,-54.09684
2023-01-06 09:09:00+00:00,302.823,3.6,12.57,47.84626,-54.09684
2023-01-06 09:19:01+00:00,310.4363,3.59,12.57,47.84626,-54.09684
2023-01-06 09:29:01+00:00,308.853,3.5,12.57,47.84626,-54.09684
2023-01-06 09:39:01+00:00,314.6979,3.5,12.57,47.84626,-54.09684
2023-01-06 09:49:01+00:00,334.783,3.5,12.57,47.84626,-54.09684
2023-01-06 09:59:01+00:00,343.1097,3.46,12.57,47.84626,-54.09684
2023-01-06 10:09:01+00:00,345.4496,3.4,12.57,47.84626,-54.09684
2023-01-06 10:19:00+00:00,352.9663,3.4,12.57,47.84626,-54.09684
2023-01-06 10:29:00+00:00,364.2696,3.5,12.57,47.84626,-54.09684
2023-01-06 10:39:00+00:00,367.7029,3.5,12.57,47.84626,-54.09684
2023-01-06 10:49:00+00:00,364.4263,3.0,12.57,47.84626,-54.09684
2023-01-06 10:59:00+00:00,355.0613,3.29,12.57,47.84626,-54.09684
2023-01-06 11:09:00+00:00,358.4196,3.47,12.57,47.84626,-54.09684
2023-01-06 11:19:00+00:00,366.4629,3.49,12.57,47.84626,-54.09684
2023-01-06 11:29:00+00:00,369.8696,3.31,12.57,47.84626,-54.09684
2023-01-06 11:39:00+00:00,370.1063,3.2,12.57,47.84626,-54.09684
2023-01-06 11:49:00+00:00,378.7013,3.4,12.57,47.84626,-54.09684
2023-01-06 11:59:00+00:00,384.9313,3.1,12.57,47.84626,-54.09684
2023-01-06 12:09:00+00:00,374.7845,3.0,12.57,47.84626,-54.09684
2023-01-06 12:19:00+00:00,365.8596,3.3,12.57,47.84626,-54.09684
2023-01-06 12:29:00+00:00,363.5796,3.48,12.57,47.84626,-54.09684
2023-01-06 12:39:00+00:00,360.1763,3.4,12.57,47.84626,-54.09684
2023-01-06 12:49:00+00:00,346.8263,3.4,12.57,47.84626,-54.09684
2023-01-06 12:59:00+00:00,348.8997,3.3,12.57,47.84626,-54.09684
2023-01-06 13:09:00+00:00,364.6129,3.28,12.57,47.84626,-54.09684
2023-01-06 13:19:01+00:00,355.1329,2.84,12.65,47.84626,-54.09684
2023-01-06 13:29:01+00:00,336.8447,3.09,12.65,47.84626,-54.09684
2023-01-06 13:39:01+00:00,333.9713,3.33,12.65,47.84626,-54.09684
2023-01-06 13:49:01+00:00,332.3813,3.4,12.65,47.84626,-54.09684
2023-01-06 13:59:01+00:00,322.8697,3.3,12.65,47.84626,-54.09684
2023-01-06 14:09:01+00:00,321.8363,3.2,12.65,47.84626,-54.09684
2023-01-06 14:19:00+00:00,316.7213,3.1,12.65,47.84626,-54.09684
2023-01-06 14:29:00+00:00,308.2664,2.9,12.65,47.84626,-54.09684
2023-01-06 14:39:00+00:00,300.2963,2.87,12.65,47.84626,-54.09684
2023-01-06 14:49:00+00:00,296.903,3.0,12.65,47.84626,-54.09684
2023-01-06 14:59:00+00:00,281.373,2.76,12.65,47.84626,-54.09684
2023-01-06 15:09:00+00:00,271.7081,2.33,12.65,47.84626,-54.09684
2023-01-06 15:19:00+00:00,270.1964,2.3,12.65,47.84626,-54.09684
2023-01-06 15:29:00+00:00,262.3347,2.36,12.65,47.84626,-54.09684
2023-01-06 15:39:00+00:00,243.313,2.39,12.65,47.84626,-54.09684
2023-01-06 15:49:00+00:00,229.2198,2.3,12.65,47.84626,-54.09684
2023-01-06 15:59:00+00:00,228.6998,2.39,12.65,47.84626,-54.09684
2023-01-06 16:09:00+00:00,224.5781,2.4,12.65,47.84626,-54.09684
2023-01-06 16:19:00+00:00,217.9664,2.4,12.81,47.84626,-54.09684
2023-01-06 16:29:00+00:00,220.9531,2.4,12.81,47.84626,-54.09684
2023-01-06 16:39:00+00:00,226.4548,2.4,12.81,47.84626,-54.09684
2023-01-06 16:49:00+00:00,218.9648,2.4,12.81,47.84626,-54.09684
2023-01-06 16:59:00+00:00,207.8981,2.42,12.81,47.84626,-54.09684
2023-01-06 17:09:00+00:00,203.0765,2.48,12.81,47.84626,-54.09684
2023-01-06 17:19:00+00:00,197.9698,2.56,12.81,47.84626,-54.09684
2023-01-06 17:29:00+00:00,196.4648,2.6,12.81,47.84626,-54.09684
2023-01-06 17:39:00+00:00,200.9548,2.61,12.81,47.84626,-54.09684
2023-01-06 17:49:00+00:00,203.3064,2.7,12.81,47.84626,-54.09684
2023-01-06 17:59:00+00:00,210.7532,2.76,12.81,47.84626,-54.09684
2023-01-06 18:09:00+00:00,219.9498,2.8,12.81,47.84626,-54.09684
2023-01-06 18:19:00+00:00,220.9014,2.8,12.81,47.84626,-54.09684
2023-01-06 18:29:00+00:00,216.3248,2.8,12.81,47.84626,-54.09684
2023-01-06 18:39:00+00:00,214.8582,2.88,12.81,47.84626,-54.09684
2023-01-06 18:49:00+00:00,210.0781,2.9,12.81,47.84626,-54.09684
2023-01-06 18:59:00+00:00,210.8048,2.9,12.81,47.84626,-54.09684
2023-01-06 19:09:00+00:00,216.7248,2.9,12.81,47.84626,-54.09684
2023-01-06 19:19:00+00:00,221.9964,2.9,12.73,47.84626,-54.09684
2023-01-06 19:29:00+00:00,229.3314,2.88,12.73,47.84626,-54.09684
2023-01-06 19:39:00+00:00,239.8931,2.85,12.73,47.84626,-54.09684
2023-01-06 19:49:00+00:00,240.2415,2.7,12.73,47.84626,-54.09684
2023-01-06 19:59:00+00:00,241.8997,2.66,12.73,47.84626,-54.09684
2023-01-06 20:09:00+00:00,248.5931,2.72,12.73,47.84626,-54.09684
2023-01-06 20:19:00+00:00,249.9531,2.8,12.65,47.84626,-54.09684
2023-01-06 20:29:00+00:00,251.2964,2.79,12.65,47.84626,-54.09684
2023-01-06 20:39:00+00:00,255.3481,2.87,12.65,47.84626,-54.09684
2023-01-06 20:49:00+00:00,261.4631,3.0,12.65,47.84626,-54.09684
2023-01-06 20:59:00+00:00,258.5398,3.12,12.65,47.84626,-54.09684
2023-01-06 21:09:00+00:00,267.4714,3.39,12.65,47.84626,-54.09684
2023-01-06 21:19:00+00:00,278.688,3.38,12.57,47.84626,-54.09684
2023-01-06 21:29:00+00:00,284.743,3.4,12.57,47.84626,-54.09684
2023-01-06 21:39:00+00:00,285.0664,3.13,12.57,47.84626,-54.09684
2023-01-06 21:49:00+00:00,300.8964,3.48,12.57,47.84626,-54.09684
2023-01-06 21:59:00+00:00,310.7596,3.5,12.57,47.84626,-54.09684
2023-01-06 22:09:00+00:00,308.2113,3.5,12.57,47.84626,-54.09684
2023-01-06 22:19:00+00:00,312.6663,3.6,12.57,47.84626,-54.09684
2023-01-06 22:29:00+00:00,330.7580000000001,3.6,12.57,47.84626,-54.09684
2023-01-06 22:39:00+00:00,336.4396,3.6,12.57,47.84626,-54.09684
2023-01-06 22:49:00+00:00,328.6996,3.6,12.57,47.84626,-54.09684
2023-01-06 22:59:00+00:00,334.5446,3.57,12.57,47.84626,-54.09684
2023-01-06 23:09:00+00:00,343.7596,3.52,12.57,47.84626,-54.09684
2023-01-06 23:19:00+00:00,339.7713,3.57,12.57,47.84626,-54.09684
2023-01-06 23:29:00+00:00,336.6880000000001,3.6,12.57,47.84626,-54.09684
2023-01-06 23:39:00+00:00,339.7912,3.6,12.57,47.84626,-54.09684
2023-01-06 23:49:00+00:00,340.7812,3.6,12.57,47.84626,-54.09684
2023-01-06 23:59:00+00:00,340.2863,3.6,12.57,47.84626,-54.09684
